Погода в Навле

Россия / Брянская область     52°49′48″N   34°30′23″E
темп.,
°C
ветер,
м/с
пор.,
м/с
влажн.,
%
обл.,
%
осадки,
мм/ч
давл.,
гПа
погр.,
м
18 июня, пт
пт1800:00+14всв310920 0.0 1024193
03:00+13всв311950 0.0 1025223
06:00+14всв310865 0.0 1025238
09:00+20всв48654 0.0 1025534
12:00+23в57540 0.0 10251223
15:00+24в56530 0.0 10251404
18:00+23в56640 0.0 10241213
21:00+17в39890 0.0 1025231
19 июня, сб
сб1900:00+14в39940 0.0 1026171
03:00+13в37950 0.0 1026125
06:00+15в38880 0.0 1026215
09:00+20в46695 0.0 1025574
12:00+24вюв45616 0.0 10241164
15:00+26вюв455646 0.0 10231501
18:00+25вюв34643 0.0 10231145
21:00+19вюв35910 0.0 1023110
20 июня, вс
вс2000:00+17вюв37960 0.0 1024143
03:00+15в35950 0.0 102398
06:00+15в37890 0.0 1023196
09:00+21вюв466654 0.0 1023527
12:00+25вюв565514 0.0 1022956
15:00+26вюв4553100 0.0 10211077
18:00+25вюв4665100 0.0 10201005
21:00+20в3887100 0.0 1020213
21 июня, пн
пн2100:00+17в31090100 0.0 1020242
03:00+16в3109083 0.0 1019210
06:00+18в4118496 0.0 1019281
09:00+23вюв5106371 0.0 1018515
12:00+26вюв6856100 0.0 1018790
15:00+28вюв5852100 0.0 1017992
18:00+26вюв5116999 0.0 1017800
21:00+22вюв4128393 0.0 1018447
22 июня, вт
вт2200:00+20вюв4129047 0.0 1018284
03:00+18вюв311905 0.0 1018239
06:00+19вюв412825 0.0 1018310
09:00+24юв51062100 0.0 1018502
12:00+28юв585328 0.0 1018850
15:00+30вюв585296 0.0 10191189
18:00+28вюв4866100 0.0 10191096
21:00+22в3894100 0.3 1019167